Change the Weather History Date:

Saturday, March 30, 2013

  Actual Average Record
Temperature  
Mean Temperature 42 °F -  
Max Temperature 55 °F 55 °F 81 °F (1986)
Min Temperature 30 °F 32 °F 11 °F (1969)
Degree Days  
Heating Degree Days 22    
Moisture  
Dew Point 35 °F    
Average Humidity 72    
Maximum Humidity 87    
Minimum Humidity 51    
Precipitation  
Precipitation 0.00 in - - ()
Sea Level Pressure  
Sea Level Pressure 30.02 in    
Wind  
Wind Speed 5 mph (SSW)    
Max Wind Speed 20 mph    
Max Gust Speed 25 mph    
Visibility 9 miles    
Events Rain    
Averages and records for this station are not official NWS values.
T = Trace of Precipitation, MM = Missing Value Source: NWS Daily Summary

Daily Weather History Graph

Daily Weather History Graph

Search for Another Location

Airport or City:

Trip Planner

Search our weather history database for the weather conditions in past years. The results will help you decide how hot, cold, wet, or windy it might be!

Date:

Astronomy

Mar. 30, 2013 Rise Set
Actual Time 6:50 AM CDT 7:27 PM CDT
Civil Twilight 6:22 AM CDT 7:55 PM CDT
Nautical Twilight 5:49 AM CDT 8:28 PM CDT
Astronomical Twilight 5:16 AM CDT 9:02 PM CDT
Moon 11:37 PM CDT (3/30) 8:43 AM CDT (3/30)
Length of Visible Light 13h 32m
Length of Day
12h 37m
Waning Gibbous, 86% of the Moon is Illuminated
Mar 30
Waning Gibbous
Apr 2
Last Quarter
Apr 10
New
Apr 18
First Quarter
Apr 25
Full

Hourly Weather History & Observations

Time (CDT) Temp. Windchill Dew Point Humidity Pressure Visibility Wind Dir Wind Speed Gust Speed Precip Events Conditions
12:15 AM 35.6 °F - 28.4 °F 75% 30.20 in 10.0 mi Calm Calm - N/A   Clear
12:35 AM 33.8 °F - 26.6 °F 75% 30.20 in 10.0 mi Calm Calm - N/A   Clear
12:55 AM 33.8 °F - 26.6 °F 75% 30.20 in 10.0 mi Calm Calm - N/A   Clear
1:15 AM 33.8 °F - 26.6 °F 75% 30.19 in 10.0 mi Calm Calm - N/A   Clear
1:35 AM 33.8 °F - 26.6 °F 75% 30.18 in 10.0 mi Calm Calm - N/A   Clear
1:55 AM 33.8 °F - 26.6 °F 75% 30.17 in 10.0 mi Calm Calm - N/A   Clear
2:15 AM 33.8 °F - 26.6 °F 75% 30.17 in 10.0 mi Calm Calm - N/A   Clear
2:35 AM 32.0 °F - 26.6 °F 80% 30.17 in 10.0 mi Calm Calm - N/A   Clear
2:55 AM 33.8 °F - 26.6 °F 75% 30.17 in 10.0 mi Calm Calm - N/A   Clear
3:15 AM 33.8 °F - 26.6 °F 75% 30.16 in 7.0 mi Calm Calm - N/A   Clear
3:35 AM 33.8 °F - 26.6 °F 75% 30.15 in 10.0 mi Calm Calm - N/A   Clear
3:55 AM 32.0 °F - 26.6 °F 80% 30.15 in 10.0 mi Calm Calm - N/A   Clear
4:15 AM 33.8 °F - 26.6 °F 75% 30.15 in 10.0 mi Calm Calm - N/A   Clear
4:35 AM 32.0 °F - 26.6 °F 80% 30.14 in 10.0 mi Calm Calm - N/A   Clear
4:55 AM 32.0 °F - 26.6 °F 80% 30.13 in 7.0 mi Calm Calm - N/A   Clear
5:15 AM 32.0 °F - 26.6 °F 80% 30.12 in 7.0 mi Calm Calm - N/A   Clear
5:35 AM 30.2 °F - 24.8 °F 80% 30.12 in 7.0 mi Calm Calm - N/A   Clear
5:55 AM 32.0 °F - 26.6 °F 80% 30.11 in 7.0 mi Calm Calm - N/A   Clear
6:15 AM 30.2 °F - 26.6 °F 86% 30.11 in 7.0 mi Calm Calm - N/A   Clear
6:35 AM 30.2 °F - 26.6 °F 86% 30.10 in 7.0 mi Calm Calm - N/A   Clear
6:55 AM 32.0 °F - 26.6 °F 80% 30.09 in 7.0 mi Calm Calm - N/A   Clear
7:15 AM 32.0 °F - 26.6 °F 80% 30.09 in 7.0 mi Calm Calm - N/A   Clear
7:35 AM 33.8 °F - 28.4 °F 81% 30.09 in 7.0 mi Calm Calm - N/A   Clear
7:55 AM 35.6 °F - 28.4 °F 75% 30.08 in 7.0 mi Calm Calm - N/A   Clear
8:15 AM 39.2 °F 35.9 °F 33.8 °F 81% 30.08 in 10.0 mi SE 4.6 mph - N/A   Clear
8:35 AM 42.8 °F 38.6 °F 33.8 °F 70% 30.07 in 7.0 mi SSE 6.9 mph - N/A   Clear
8:55 AM 42.8 °F 38.6 °F 33.8 °F 70% 30.07 in 10.0 mi SSE 6.9 mph - N/A   Clear
9:15 AM 44.6 °F 40.7 °F 35.6 °F 71% 30.07 in 10.0 mi South 6.9 mph - N/A   Clear
9:35 AM 44.6 °F 39.2 °F 37.4 °F 76% 30.07 in 10.0 mi South 10.4 mph - N/A   Clear
9:55 AM 46.4 °F 41.9 °F 37.4 °F 71% 30.06 in 10.0 mi SSE 9.2 mph - N/A   Clear
10:15 AM 46.4 °F 41.9 °F 37.4 °F 71% 30.05 in 10.0 mi SSE 9.2 mph - N/A   Clear
10:35 AM 48.2 °F - 39.2 °F 71% 30.05 in 10.0 mi South 8.1 mph - N/A   Clear
10:55 AM 50.0 °F - 39.2 °F 66% 30.05 in 10.0 mi South 10.4 mph - N/A   Clear
11:15 AM 51.8 °F - 41.0 °F 67% 30.04 in 10.0 mi South 10.4 mph - N/A   Clear
11:35 AM 53.6 °F - 41.0 °F 62% 30.03 in 10.0 mi South 19.6 mph 23.0 mph N/A   Clear
11:55 AM 53.6 °F - 39.2 °F 58% 30.01 in 10.0 mi South 18.4 mph 24.2 mph N/A   Clear
12:15 PM 53.6 °F - 39.2 °F 58% 30.01 in 10.0 mi South 19.6 mph - N/A   Clear
12:35 PM 53.6 °F - 39.2 °F 58% 30.01 in 10.0 mi South 19.6 mph 23.0 mph N/A   Scattered Clouds
12:55 PM 55.4 °F - 39.2 °F 54% 30.00 in 10.0 mi South 18.4 mph - N/A   Clear
1:15 PM 53.6 °F - 39.2 °F 58% 29.99 in 10.0 mi South 12.7 mph - N/A   Clear
1:35 PM 53.6 °F - 37.4 °F 54% 30.00 in 10.0 mi SSW 15.0 mph - N/A   Mostly Cloudy
1:55 PM 53.6 °F - 37.4 °F 54% 29.99 in 10.0 mi SSW 16.1 mph 23.0 mph N/A   Scattered Clouds
2:15 PM 53.6 °F - 39.2 °F 58% 29.98 in 10.0 mi SSW 17.3 mph - N/A   Mostly Cloudy
2:35 PM 53.6 °F - 37.4 °F 54% 29.97 in 10.0 mi South 12.7 mph - N/A   Scattered Clouds
2:55 PM 53.6 °F - 39.2 °F 58% 29.96 in 10.0 mi SSW 12.7 mph - N/A Rain Light Rain
3:15 PM 51.8 °F - 39.2 °F 62% 29.96 in 10.0 mi SSW 10.4 mph - N/A Rain Light Rain
3:35 PM 53.6 °F - 37.4 °F 54% 29.94 in 10.0 mi South 12.7 mph - N/A   Mostly Cloudy
3:55 PM 53.6 °F - 37.4 °F 54% 29.93 in 10.0 mi South 12.7 mph - N/A   Overcast
4:15 PM 53.6 °F - 37.4 °F 54% 29.92 in 10.0 mi South 13.8 mph - N/A   Overcast
4:35 PM 53.6 °F - 37.4 °F 54% 29.92 in 10.0 mi South 12.7 mph - N/A   Overcast
4:55 PM 53.6 °F - 35.6 °F 51% 29.91 in 10.0 mi SSW 15.0 mph 19.6 mph N/A   Overcast
5:15 PM 53.6 °F - 37.4 °F 54% 29.91 in 10.0 mi SSW 12.7 mph 18.4 mph N/A   Overcast
5:35 PM 51.8 °F - 37.4 °F 58% 29.90 in 10.0 mi South 13.8 mph - N/A Rain Light Rain
5:55 PM 51.8 °F - 37.4 °F 58% 29.90 in 10.0 mi South 15.0 mph - N/A   Overcast
6:15 PM 51.8 °F - 37.4 °F 58% 29.90 in 10.0 mi South 15.0 mph - N/A   Overcast
6:35 PM 51.8 °F - 39.2 °F 62% 29.89 in 10.0 mi SSW 18.4 mph 25.3 mph N/A   Overcast
6:55 PM 50.0 °F - 39.2 °F 66% 29.90 in 10.0 mi SSW 12.7 mph - N/A   Overcast
7:15 PM 48.2 °F - 41.0 °F 76% 29.90 in 5.0 mi SSW 12.7 mph 19.6 mph N/A   Haze
7:35 PM 48.2 °F - 42.8 °F 82% 29.89 in 7.0 mi SSW 9.2 mph - N/A   Overcast
7:55 PM 48.2 °F - 42.8 °F 82% 29.90 in 10.0 mi SSW 5.8 mph - N/A   Overcast
8:15 PM 48.2 °F - 42.8 °F 82% 29.89 in 7.0 mi SSW 5.8 mph - N/A   Drizzle
8:35 PM 46.4 °F 43.5 °F 42.8 °F 87% 29.90 in 7.0 mi SSW 5.8 mph - N/A   Overcast
8:55 PM 46.4 °F 42.9 °F 42.8 °F 87% 29.89 in 7.0 mi SSW 6.9 mph - N/A   Overcast
9:15 PM 48.2 °F - 42.8 °F 82% 29.89 in 10.0 mi SW 8.1 mph - N/A   Overcast
9:35 PM 46.4 °F 41.9 °F 42.8 °F 87% 29.90 in 10.0 mi SW 9.2 mph - N/A   Overcast
9:55 PM 46.4 °F 42.4 °F 42.8 °F 87% 29.90 in 7.0 mi SW 8.1 mph - N/A   Overcast
10:15 PM 46.4 °F 41.1 °F 42.8 °F 87% 29.90 in 10.0 mi SW 11.5 mph - N/A   Overcast
10:35 PM 46.4 °F 41.9 °F 42.8 °F 87% 29.90 in 10.0 mi SW 9.2 mph - N/A   Overcast
10:55 PM 46.4 °F 42.9 °F 42.8 °F 87% 29.89 in 7.0 mi SW 6.9 mph - N/A   Overcast
11:15 PM 46.4 °F 42.9 °F 42.8 °F 87% 29.89 in 7.0 mi SW 6.9 mph - N/A   Mostly Cloudy
11:35 PM 46.4 °F 43.5 °F 42.8 °F 87% 29.89 in 7.0 mi WSW 5.8 mph - N/A   Overcast
11:55 PM 46.4 °F 42.9 °F 41.0 °F 81% 29.88 in 7.0 mi West 6.9 mph - N/A   Overcast